Flag for U.S.A. Weather past 2 weeks in Portsmouth, Virginia, U.S.A.

Now
82 °F

Broken clouds.


Feels Like: 87 °F
Forecast: 75 / 89 °F
Wind: 12 mph from South

Location: Norfolk Naval Air Station

Current Time: Jul 6, 2015 at 6:08:45 PM

Latest Report: Jul 6, 2015 at 4:59 PM


Visibility: 10 mi

Pressure: 30.09 "Hg

Humidity: 72%

Dew point: 72 °F

Location of PortsmouthLocation

Historic Weather in Portsmouth — Graph

°F

Portsmouth temperature yesterday

Maximum temperature yesterday: 82 °F (at 4:59 PM)
Minimum temperature yesterday: 72 °F (at 12:59 AM)
Average temperature yesterday: 76 °F

Past Weeks' High & Low Weather Summary

 TemperatureHumidityPressure
High96 °F (Jun 23, 1:59 PM)100% (Jul 5, 5:59 AM)30.17 "Hg (Jul 5, 5:59 AM)
Low62 °F (Jun 29, 4:59 AM)43% (Jun 30, 12:59 PM)29.70 "Hg (Jun 28, 2:59 AM)
Average78 °F75%29.96 "Hg
* Reported Jun 21 3:59 PM — Jul 6 3:59 PM, Portsmouth, Weather by CustomWeather, © 2015

Note: Actual official high and low records may vary slightly from our data, if they occured in-between our weather recording intervals... More about our weather records

Advertising

Portsmouth weather history for previous 24 hours

 ConditionsComfort  
Time TempWeatherWind HumidityBarometerVisibility
3:59 PM
Mon, Jul 6
82 °FBroken clouds.8 mph72%30.10 "Hg10 mi
2:59 PM76 °FThunderstorms. Partly sunny.7 mph88%30.11 "Hg9 mi
1:59 PM83 °FLight rain. Partly sunny.7 mph70%30.10 "Hg8 mi
1:03 PM79 °FHeavy rain. Mostly cloudy.13 mph82%30.13 "Hg1 mi
1:01 PM81 °FRain. Mostly cloudy.13 mph79%30.14 "Hg1 mi
11:59 AM83 °FPartly sunny.7 mph72%30.13 "Hg8 mi
10:59 AM83 °FPartly sunny.9 mph72%30.14 "Hg8 mi
9:59 AM81 °FPartly sunny.8 mph77%30.14 "Hg8 mi
8:59 AM78 °FBroken clouds.8 mph84%30.15 "Hg9 mi
7:59 AM76 °FBroken clouds.8 mph88%30.14 "Hg9 mi
6:59 AM73 °FBroken clouds.5 mph94%30.14 "Hg8 mi
5:59 AM72 °FPartly cloudy.3 mph93%30.13 "Hg9 mi
4:59 AM72 °FPassing clouds.6 mph93%30.11 "Hg9 mi
3:59 AM72 °FPartly cloudy.No wind93%30.11 "Hg9 mi
2:59 AM72 °FMostly cloudy.No wind93%30.11 "Hg8 mi
2:01 AM72 °FThunderstorms. Fog.9 mph93%30.14 "Hg1 mi
12:59 AM71 °FThunderstorms. Fog.No wind93%30.11 "Hg4 mi
11:59 PM
Sun, Jul 5
72 °FThunderstorms. Mostly cloudy.5 mph93%30.14 "Hg8 mi
10:59 PM72 °FThunderstorms. Fog.6 mph93%30.16 "Hg5 mi
10:04 PM72 °FThunderstorms. Fog.16 mph91%30.16 "Hg1 mi
9:59 PM75 °FThunderstorms. Mostly cloudy.20 mph94%30.17 "Hg7 mi
8:59 PM76 °FThunderstorms. Mostly cloudy.6 mph94%30.12 "Hg7 mi
7:59 PM76 °FLight rain. Fog.5 mph94%30.11 "Hg5 mi
6:59 PM79 °FCloudy.8 mph77%30.11 "Hg8 mi
Weather by CustomWeather, © 2015

See weather overviewHow to use our weather pages